Time,TemperatureF,DewpointF,PressureIn,WindDirection,WindDirectionDegrees,WindSpeedMPH,WindSpeedGustMPH,Humidity,HourlyPrecipIn,Conditions,Clouds,dailyrainin,SolarRadiationWatts/m^2,SoftwareType,DateUTC
2013-08-02 00:01:00,71.0,70.0,-100.00,WNW,294,0.0,0.0,98,0.00,,,0.17,0.000000,,2013-08-02 04:01:00,
2013-08-02 00:02:00,71.0,70.0,-100.00,WNW,294,0.0,0.0,98,0.00,,,0.17,0.000000,,2013-08-02 04:02:00,
2013-08-02 00:33:00,70.0,69.0,-100.00,WNW,301,0.0,0.0,98,0.00,,,0.17,0.000000,,2013-08-02 04:33:00,
2013-08-02 00:43:00,70.0,69.0,-100.00,WNW,301,0.0,0.0,98,0.00,,,0.17,0.000000,,2013-08-02 04:43:00,
2013-08-02 00:53:00,70.0,69.0,-100.00,WNW,301,0.0,0.0,98,0.00,,,0.17,0.000000,,2013-08-02 04:53:00,
2013-08-02 01:02:00,70.0,69.0,-100.00,WNW,301,0.0,0.0,98,0.00,,,0.17,0.000000,,2013-08-02 05:02:00,
2013-08-02 01:32:00,70.0,68.0,-100.00,WNW,299,0.0,0.0,94,0.00,,,0.17,0.000000,,2013-08-02 05:32:00,
2013-08-02 01:43:00,70.0,68.0,-100.00,WNW,299,0.0,0.0,94,0.00,,,0.17,0.000000,,2013-08-02 05:43:00,
2013-08-02 01:53:00,70.0,68.0,-100.00,WNW,299,0.0,0.0,94,0.00,,,0.17,0.000000,,2013-08-02 05:53:00,
2013-08-02 02:02:00,70.0,68.0,-100.00,WNW,299,0.0,0.0,94,0.00,,,0.17,0.000000,,2013-08-02 06:02:00,
2013-08-02 02:33:00,70.0,69.0,-100.00,WNW,296,0.0,0.0,96,0.00,,,0.17,0.000000,,2013-08-02 06:33:00,
2013-08-02 02:43:00,70.0,69.0,-100.00,WNW,296,0.0,0.0,96,0.00,,,0.17,0.000000,,2013-08-02 06:43:00,
2013-08-02 02:52:00,70.0,69.0,-100.00,WNW,296,0.0,0.0,96,0.00,,,0.17,0.000000,,2013-08-02 06:52:00,
2013-08-02 03:02:00,70.0,69.0,-100.00,WNW,296,0.0,0.0,96,0.00,,,0.17,0.000000,,2013-08-02 07:02:00,
2013-08-02 03:33:00,69.0,68.0,-100.00,WNW,289,0.0,0.0,98,0.00,,,0.17,0.000000,,2013-08-02 07:33:00,
2013-08-02 03:44:00,69.0,68.0,-100.00,WNW,289,0.0,0.0,98,0.00,,,0.17,0.000000,,2013-08-02 07:44:00,
2013-08-02 03:53:00,69.0,68.0,-100.00,WNW,289,0.0,0.0,98,0.00,,,0.17,0.000000,,2013-08-02 07:53:00,
2013-08-02 04:02:00,69.0,68.0,-100.00,WNW,289,0.0,0.0,98,0.00,,,0.17,0.000000,,2013-08-02 08:02:00,
2013-08-02 04:33:00,68.0,67.0,-100.00,WNW,298,0.0,0.0,96,0.00,,,0.17,0.000000,,2013-08-02 08:33:00,
2013-08-02 04:43:00,68.0,67.0,-100.00,WNW,298,0.0,0.0,96,0.00,,,0.17,0.000000,,2013-08-02 08:43:00,
2013-08-02 04:54:00,68.0,67.0,-100.00,WNW,298,0.0,0.0,96,0.00,,,0.17,0.000000,,2013-08-02 08:54:00,
2013-08-02 05:02:00,68.0,67.0,-100.00,WNW,298,0.0,0.0,96,0.00,,,0.17,0.000000,,2013-08-02 09:02:00,
2013-08-02 05:33:00,68.0,66.0,-100.00,West,261,0.0,0.0,92,0.00,,,0.17,0.000000,,2013-08-02 09:33:00,
2013-08-02 05:44:00,68.0,66.0,-100.00,West,261,0.0,0.0,92,0.00,,,0.17,0.000000,,2013-08-02 09:44:00,
2013-08-02 05:53:00,68.0,66.0,-100.00,West,261,0.0,0.0,92,0.00,,,0.17,0.000000,,2013-08-02 09:53:00,
2013-08-02 06:03:00,68.0,66.0,-100.00,West,261,0.0,0.0,92,0.00,,,0.17,0.000000,,2013-08-02 10:03:00,
2013-08-02 06:44:00,67.0,65.0,-100.00,WNW,285,0.0,0.0,93,0.00,,,0.17,0.000000,,2013-08-02 10:44:00,
2013-08-02 06:52:00,67.0,65.0,-100.00,WNW,285,0.0,0.0,93,0.00,,,0.17,0.000000,,2013-08-02 10:52:00,
2013-08-02 07:02:00,67.0,65.0,-100.00,WNW,285,0.0,0.0,93,0.00,,,0.17,0.000000,,2013-08-02 11:02:00,
2013-08-02 07:33:00,67.0,64.0,-100.00,WNW,295,2.0,4.0,91,0.00,,,0.17,3.000000,,2013-08-02 11:33:00,
2013-08-02 07:43:00,67.0,64.0,-100.00,WNW,295,2.0,4.0,91,0.00,,,0.17,3.000000,,2013-08-02 11:43:00,
2013-08-02 07:52:00,67.0,64.0,-100.00,WNW,295,2.0,4.0,91,0.00,,,0.17,3.000000,,2013-08-02 11:52:00,
2013-08-02 08:02:00,67.0,64.0,-100.00,WNW,295,2.0,4.0,91,0.00,,,0.17,3.000000,,2013-08-02 12:02:00,
2013-08-02 08:33:00,67.0,65.0,-100.00,WNW,291,2.0,4.0,94,0.00,,,0.17,29.000000,,2013-08-02 12:33:00,
2013-08-02 08:43:00,67.0,65.0,-100.00,WNW,291,2.0,4.0,94,0.00,,,0.17,29.000000,,2013-08-02 12:43:00,
2013-08-02 08:52:00,67.0,65.0,-100.00,WNW,291,2.0,4.0,94,0.00,,,0.17,29.000000,,2013-08-02 12:52:00,
2013-08-02 09:03:00,67.0,65.0,-100.00,WNW,291,2.0,4.0,94,0.00,,,0.17,29.000000,,2013-08-02 13:03:00,
2013-08-02 09:33:00,74.0,69.0,-100.00,NW,324,1.0,5.0,85,0.00,,,0.17,213.000000,,2013-08-02 13:33:00,
2013-08-02 09:43:00,74.0,69.0,-100.00,NW,324,1.0,5.0,85,0.00,,,0.17,213.000000,,2013-08-02 13:43:00,
2013-08-02 09:52:00,74.0,69.0,-100.00,NW,324,1.0,5.0,85,0.00,,,0.17,213.000000,,2013-08-02 13:52:00,
2013-08-02 10:02:00,74.0,69.0,-100.00,NW,324,1.0,5.0,85,0.00,,,0.17,213.000000,,2013-08-02 14:02:00,
2013-08-02 10:32:00,80.0,70.0,-100.00,ESE,115,1.0,3.0,72,0.00,,,0.17,439.000000,,2013-08-02 14:32:00,
2013-08-02 10:43:00,80.0,70.0,-100.00,ESE,115,1.0,3.0,72,0.00,,,0.17,439.000000,,2013-08-02 14:43:00,
2013-08-02 10:53:00,80.0,70.0,-100.00,ESE,115,1.0,3.0,72,0.00,,,0.17,439.000000,,2013-08-02 14:53:00,
2013-08-02 11:03:00,80.0,70.0,-100.00,ESE,115,1.0,3.0,72,0.00,,,0.17,439.000000,,2013-08-02 15:03:00,
2013-08-02 11:32:00,82.0,70.0,-100.00,SE,133,2.0,5.0,68,0.00,,,0.17,626.000000,,2013-08-02 15:32:00,
2013-08-02 11:43:00,82.0,70.0,-100.00,SE,133,2.0,5.0,68,0.00,,,0.17,626.000000,,2013-08-02 15:43:00,
2013-08-02 11:52:00,82.0,70.0,-100.00,SE,133,2.0,5.0,68,0.00,,,0.17,626.000000,,2013-08-02 15:52:00,
2013-08-02 12:02:00,82.0,70.0,-100.00,SE,133,2.0,5.0,68,0.00,,,0.17,626.000000,,2013-08-02 16:02:00,
2013-08-02 12:32:00,84.0,70.0,-100.00,SE,131,3.0,5.0,63,0.00,,,0.17,851.000000,,2013-08-02 16:32:00,
2013-08-02 12:43:00,84.0,70.0,-100.00,SE,131,3.0,5.0,63,0.00,,,0.17,851.000000,,2013-08-02 16:43:00,
2013-08-02 12:53:00,84.0,70.0,-100.00,SE,131,3.0,5.0,63,0.00,,,0.17,851.000000,,2013-08-02 16:53:00,
2013-08-02 13:02:00,84.0,70.0,-100.00,SE,131,3.0,5.0,63,0.00,,,0.17,851.000000,,2013-08-02 17:02:00,
2013-08-02 13:43:00,82.0,69.0,-100.00,SSE,149,3.0,7.0,65,0.00,,,0.17,782.000000,,2013-08-02 17:43:00,
2013-08-02 13:52:00,82.0,69.0,-100.00,SSE,149,3.0,7.0,65,0.00,,,0.17,782.000000,,2013-08-02 17:52:00,
2013-08-02 14:02:00,82.0,69.0,-100.00,SSE,149,3.0,7.0,65,0.00,,,0.17,782.000000,,2013-08-02 18:02:00,
2013-08-02 14:43:00,87.0,72.0,-100.00,East,97,3.0,5.0,61,0.00,,,0.17,954.000000,,2013-08-02 18:43:00,
2013-08-02 14:52:00,87.0,72.0,-100.00,East,97,3.0,5.0,61,0.00,,,0.17,954.000000,,2013-08-02 18:52:00,
2013-08-02 15:02:00,87.0,72.0,-100.00,East,97,3.0,5.0,61,0.00,,,0.17,954.000000,,2013-08-02 19:02:00,
2013-08-02 15:33:00,86.0,71.0,-100.00,SE,141,2.0,4.0,61,0.00,,,0.13,835.000000,,2013-08-02 19:33:00,
2013-08-02 15:43:00,86.0,71.0,-100.00,SE,141,2.0,4.0,61,0.00,,,0.13,835.000000,,2013-08-02 19:43:00,
2013-08-02 15:52:00,86.0,71.0,-100.00,SE,141,2.0,4.0,61,0.00,,,0.13,835.000000,,2013-08-02 19:52:00,
2013-08-02 16:02:00,86.0,71.0,-100.00,SE,141,2.0,4.0,61,0.00,,,0.13,835.000000,,2013-08-02 20:02:00,
2013-08-02 16:33:00,86.0,71.0,-100.00,SSE,163,2.0,6.0,62,0.00,,,-99.99,854.000000,,2013-08-02 20:33:00,
2013-08-02 16:43:00,86.0,71.0,-100.00,SSE,163,2.0,6.0,62,0.00,,,-99.99,854.000000,,2013-08-02 20:43:00,
2013-08-02 16:52:00,86.0,71.0,-100.00,SSE,163,2.0,6.0,62,0.00,,,-99.99,854.000000,,2013-08-02 20:52:00,
2013-08-02 17:03:00,86.0,71.0,-100.00,SSE,163,2.0,6.0,62,0.00,,,-99.99,854.000000,,2013-08-02 21:03:00,
2013-08-02 17:43:00,86.0,69.0,-100.00,SSE,151,1.0,4.0,58,0.00,,,0.00,665.000000,,2013-08-02 21:43:00,
2013-08-02 17:53:00,86.0,69.0,-100.00,SSE,151,1.0,4.0,58,0.00,,,0.00,665.000000,,2013-08-02 21:53:00,
2013-08-02 18:02:00,86.0,69.0,-100.00,SSE,151,1.0,4.0,58,0.00,,,0.00,665.000000,,2013-08-02 22:02:00,
2013-08-02 18:43:00,83.0,69.0,-100.00,West,275,1.0,3.0,62,0.00,,,0.00,429.000000,,2013-08-02 22:43:00,
2013-08-02 18:52:00,83.0,69.0,-100.00,West,275,1.0,3.0,62,0.00,,,0.00,429.000000,,2013-08-02 22:52:00,
2013-08-02 19:02:00,83.0,69.0,-100.00,West,275,1.0,3.0,62,0.00,,,0.00,429.000000,,2013-08-02 23:02:00,
2013-08-02 19:32:00,79.0,69.0,-100.00,NNE,21,0.0,3.0,72,0.00,,,0.00,99.000000,,2013-08-02 23:32:00,
2013-08-02 19:44:00,79.0,69.0,-100.00,NNE,21,0.0,3.0,72,0.00,,,0.00,99.000000,,2013-08-02 23:44:00,
2013-08-02 19:53:00,79.0,69.0,-100.00,NNE,21,0.0,3.0,72,0.00,,,0.00,99.000000,,2013-08-02 23:53:00,
2013-08-02 20:02:00,79.0,69.0,-100.00,NNE,21,0.0,3.0,72,0.00,,,0.00,99.000000,,2013-08-03 00:02:00,
2013-08-02 20:33:00,77.0,69.0,-100.00,NW,320,0.0,2.0,77,0.00,,,0.00,70.000000,,2013-08-03 00:33:00,
2013-08-02 20:43:00,77.0,69.0,-100.00,NW,320,0.0,2.0,77,0.00,,,0.00,70.000000,,2013-08-03 00:43:00,
2013-08-02 20:52:00,77.0,69.0,-100.00,NW,320,0.0,2.0,77,0.00,,,0.00,70.000000,,2013-08-03 00:52:00,
2013-08-02 21:03:00,77.0,69.0,-100.00,NW,320,0.0,2.0,77,0.00,,,0.00,70.000000,,2013-08-03 01:03:00,
2013-08-02 21:32:00,74.0,68.0,-100.00,WNW,298,1.0,2.0,81,0.00,,,0.00,6.000000,,2013-08-03 01:32:00,
2013-08-02 21:43:00,74.0,68.0,-100.00,WNW,298,1.0,2.0,81,0.00,,,0.00,6.000000,,2013-08-03 01:43:00,
2013-08-02 21:53:00,74.0,68.0,-100.00,WNW,298,1.0,2.0,81,0.00,,,0.00,6.000000,,2013-08-03 01:53:00,
2013-08-02 22:02:00,74.0,68.0,-100.00,WNW,298,1.0,2.0,81,0.00,,,0.00,6.000000,,2013-08-03 02:02:00,
2013-08-02 22:32:00,74.0,68.0,-100.00,WNW,282,0.0,0.0,81,0.00,,,0.00,0.000000,,2013-08-03 02:32:00,
2013-08-02 22:43:00,74.0,68.0,-100.00,WNW,282,0.0,0.0,81,0.00,,,0.00,0.000000,,2013-08-03 02:43:00,
2013-08-02 22:53:00,74.0,68.0,-100.00,WNW,282,0.0,0.0,81,0.00,,,0.00,0.000000,,2013-08-03 02:53:00,
2013-08-02 23:03:00,74.0,68.0,-100.00,WNW,282,0.0,0.0,81,0.00,,,0.00,0.000000,,2013-08-03 03:03:00,
2013-08-02 23:32:00,73.0,68.0,-100.00,NW,307,0.0,0.0,85,0.00,,,0.00,0.000000,,2013-08-03 03:32:00,
2013-08-02 23:43:00,73.0,68.0,-100.00,NW,307,0.0,0.0,85,0.00,,,0.00,0.000000,,2013-08-03 03:43:00,
2013-08-02 23:53:00,73.0,68.0,-100.00,NW,307,0.0,0.0,85,0.00,,,0.00,0.000000,,2013-08-03 03:53:00,